Overview Statistics Trail Chart Weather Telemetry Raw packets
 

This is the latest recevied weather packets stored in our database for station/object KN6DHD. If no packets are shown the sender has not sent any weather packets the latest 10 day(s).

<< 52 53 54 55 56 57 58 >>
Time Temp. Humidity Pressure Rain* Wind** Luminosity Snow
1777420141 25° C 44% 1018.1 hPa 0 mm - 70 W/m² -
1777419837 25° C 45% 1018.1 hPa 0 mm - 101 W/m² -
1777419535 26.11° C 43% 1018.1 hPa 0 mm - 81 W/m² -
1777419234 26.11° C 41% 1018 hPa 0 mm - 448 W/m² -
1777418931 25° C 43% 1018 hPa 0 mm - 470 W/m² -
1777418626 25° C 44% 1018.2 hPa 0 mm - 454 W/m² -
1777418322 25° C 45% 1018.2 hPa 0 mm - 125 W/m² -
1777418018 25.56° C 43% 1018.2 hPa 0 mm - 147 W/m² -
1777417714 25° C 44% 1018.1 hPa 0 mm - 241 W/m² -
1777417410 25.56° C 44% 1018.2 hPa 0 mm - 567 W/m² -
1777417106 26.11° C 43% 1018.1 hPa 0 mm - 557 W/m² -
1777416802 25.56° C 44% 1018.2 hPa 0 mm - 534 W/m² -
1777416497 23.89° C 46% 1018.3 hPa 0 mm - 528 W/m² -
1777416194 23.89° C 47% 1018.4 hPa 0 mm - 494 W/m² -
1777415888 25° C 45% 1018.3 hPa 0 mm - 449 W/m² -
1777415584 25° C 44% 1018.3 hPa 0 mm - 602 W/m² -
1777415280 24.44° C 45% 1018.3 hPa 0 mm - 616 W/m² -
1777414974 24.44° C 44% 1018.4 hPa 0 mm - 738 W/m² -
1777414669 23.89° C 44% 1018.3 hPa 0 mm - 724 W/m² -
1777414364 23.33° C 46% 1018.6 hPa 0 mm - 709 W/m² -
1777414058 24.44° C 45% 1018.5 hPa 0 mm - 703 W/m² -
1777413753 23.89° C 46% 1018.6 hPa 0 mm - 694 W/m² -
1777413449 25° C 44% 1018.9 hPa 0 mm - 744 W/m² -
1777413145 24.44° C 45% 1019 hPa 0 mm - 791 W/m² -
1777412841 25° C 45% 1019.1 hPa 0 mm - 794 W/m² -

* Rain latest hour (hover to see other rain measurements)
** Current wind speed in m/s (hover to see current wind gust speed)